Miscellaneous Local Product
Issued by NWS Hastings, NE

Home | Current Version | Previous Version | Graphics & Text | Print | Product List | Glossary On
Versions: 1 2 3 4 5 6 7 8 9 10 11 12 13 14 15 16 17 18 19 20 21 22 23 24 25 26 27 28 29 30 31 32 33 34 35 36 37 38 39 40 41 42 43 44 45 46 47 48 49 50
000
AXUS43 KGID 301402
MISGRI

GID CWA HOURLY WEATHER ROUNDUP
NATIONAL WEATHER SERVICE HASTINGS NE
900 AM CDT SAT APR 30 2016

NOTE: "FAIR" INDICATES FEW OR NO CLOUDS BELOW 12,000 FEET WITH NO
SIGNIFICANT WEATHER AND/OR OBSTRUCTIONS TO VISIBILITY.

...SOUTH CENTRAL NEBRASKA...

CITY           SKY/WX    TMP DP  RH WIND       PRES   REMARKS
GRAND ISLAND   LGT RAIN  42  41  96 NE15      29.74R FOG
HASTINGS       LGT RAIN  43  42  97 NE14      29.71S FOG
KEARNEY        CLOUDY    43  39  87 N15       29.73F
ORD            LGT RAIN  41  38  89 NE17G24   29.77S
YORK           LGT RAIN  43  43 100 NE14      29.71F
AURORA         DRIZZLE   43  43  99 NE16      29.72S
LEXINGTON      DRIZZLE   38  37  92 N10       29.76S WCI  32
HOLDREGE       DRIZZLE   41  40  95 N12       29.73S
HEBRON         CLOUDY    46  46  97 NE7       29.68S FOG

...NEBRASKA PANHANDLE...

CITY           SKY/WX    TMP DP  RH WIND       PRES   REMARKS
CHADRON        LGT RAIN  38  36  92 N14G25    30.00R FOG     WCI  30
ALLIANCE       LGT SNOW  33  32  96 N22       29.88F VSB 3/4 WCI  21
SCOTTSBLUFF    LGT SNOW  35  31  85 N21       29.93S FOG     WCI  24
SIDNEY         SNOW      33  31  92 N18       29.87R VSB 1/2 WCI  22

...WESTERN AND NORTH CENTRAL NEBRASKA...

CITY           SKY/WX    TMP DP  RH WIND       PRES   REMARKS
VALENTINE      RAIN      39  36  89 NE21      29.92S WCI  29
AINSWORTH      LGT SNOW  34  33  98 NE18      29.89S WCI  23
ONEILL         RAIN      40  39  93 NE16G22   29.85F WCI  32
BROKEN BOW     LGT RAIN  36  34  92 N15       29.78R WCI  27
IMPERIAL       CLOUDY    34  32  92 N15       29.82S WCI  24
NORTH PLATTE   FLURRIES  34  32  92 NW7       29.81S WCI  28
MCCOOK         CLOUDY    37  35  92 N13       29.79R WCI  29

...EASTERN NEBRASKA...

CITY           SKY/WX    TMP DP  RH WIND       PRES   REMARKS
NORFOLK        RAIN      42  39  89 NE12      29.79S FOG
SO SIOUX CITY  HVY RAIN  45  41  86 E7        29.83R FOG
TEKAMAH        RAIN      45  43  93 NE9       29.77R
COLUMBUS       CLOUDY    43  36  75 NE20      29.74R
ALBION         LGT RAIN  41  40  94 NE10      29.76R
OMAHA EPPLEY   LGT RAIN  47  44  90 CALM      29.75R FOG
OFFUTT AFB     LGT RAIN  46  46 100 NE8       29.72R
MILLARD        LGT SNOW  46  44  93 E3        29.74R
LINCOLN        CLOUDY    46  44  93 NE10      29.71F FOG
NEBRASKA CITY  CLOUDY    47  47 100 E8        29.68F FOG
BEATRICE       CLOUDY    47  46  97 NE8       29.66F
FALLS CITY     CLOUDY    52  50  93 E10       29.65F

...NORTHERN KANSAS...

CITY           SKY/WX    TMP DP  RH WIND       PRES   REMARKS
GOODLAND       FOG       33  32  96 NW15      29.80R VSB 1/2 WCI  23
HILL CITY      CLOUDY    42  39  89 NW17      29.76R
NORTON         CLOUDY    37  36  93 NW17      29.75S FOG     WCI  28
PHILLIPSBURG   CLOUDY    45  45 100 NW12      29.75R FOG
SMITH CENTER   CLOUDY    43  43 100 N9        29.72S FOG
BELOIT         CLOUDY    45  43  93 CALM      29.70R
HAYS           CLOUDY    45  36  70 NW14      29.74R
RUSSELL        LGT RAIN  46  45  96 NW9       29.72R FOG
CONCORDIA      CLOUDY    48  46  93 N5        29.68S FOG
SALINA         CLOUDY    52  49  89 W14       29.70R
TOPEKA         MOSUNNY   59  56  89 SW8       29.63F



USA.gov is the U.S. government's official web portal to all federal, state and local government web resources and services.